De Queen, AR

7:14 PM CDT on July 26, 2017 (GMT -0500)
Helms Sevier County

Weather History for KDEQ - March, 2014

Change the Weather History Date:

Tuesday, March 11, 2014

  Actual Average Record
Temperature  
Mean Temperature 60 °F 52 °F  
Max Temperature 78 °F 65 °F 90 °F (1954)
Min Temperature 42 °F 39 °F 17 °F (1948)
Degree Days  
Heating Degree Days 5 13  
Month to date heating degree days 207 160  
Since 1 July heating degree days 2979 2651  
Cooling Degree Days 0 0  
Month to date cooling degree days 0 0  
Year to date cooling degree days 0 2  
Growing Degree Days 10 (Base 50)    
Moisture  
Dew Point 51 °F    
Average Humidity 72    
Maximum Humidity 100    
Minimum Humidity 43    
Precipitation  
Precipitation 0.00 in 0.13 in 1.60 in (1963)
Month to date precipitation 1.72 1.17  
Year to date precipitation 3.66 8.17  
Snow  
Snow 0.00 in - - ()
Month to date snowfall T  
Since 1 July snowfall 1.2  
Snow Depth 0.00 in    
Sea Level Pressure  
Sea Level Pressure 29.67 in    
Wind  
Wind Speed 5 mph (South)    
Max Wind Speed 18 mph    
Max Gust Speed 25 mph    
Visibility 8 miles    
Events      
T = Trace of Precipitation, MM = Missing Value Source: NWS Daily Summary

Daily Weather History Graph

Daily Weather History Graph

Search for Another Location

Airport or City:

Trip Planner

Search our weather history database for the weather conditions in past years. The results will help you decide how hot, cold, wet, or windy it might be!

Date:

Astronomy

Mar. 11, 2014 Rise Set
Actual Time 7:33 AM CDT 7:22 PM CDT
Civil Twilight 7:08 AM CDT 7:47 PM CDT
Nautical Twilight 6:39 AM CDT 8:16 PM CDT
Astronomical Twilight 6:10 AM CDT 8:45 PM CDT
Moon 3:08 PM CDT (3/11) 4:17 AM CDT (3/11)
Length of Visible Light 12h 38m
Length of Day
11h 48m
Waxing Gibbous, 78% of the Moon is Illuminated
Mar 11
Waxing Gibbous
Mar 16
Full
Mar 23
Last Quarter
Mar 30
New
Apr 7
First Quarter

Hourly Weather History & Observations

Time (CDT) Temp. Windchill Dew Point Humidity Pressure Visibility Wind Dir Wind Speed Gust Speed Precip Events Conditions
12:53 AM 45.0 °F - 44.1 °F 97% 29.84 in 8.0 mi Calm Calm - N/A   Clear
1:53 AM 45.0 °F - 43.0 °F 93% 29.82 in 7.0 mi Calm Calm - N/A   Clear
2:53 AM 45.0 °F - 43.0 °F 93% 29.81 in 7.0 mi Calm Calm - N/A   Clear
3:53 AM 44.1 °F 42.5 °F 42.1 °F 93% 29.78 in 6.0 mi East 3.5 mph - N/A   Clear
4:53 AM 43.0 °F - 42.1 °F 97% 29.76 in 6.0 mi Calm Calm - N/A   Clear
5:53 AM 43.0 °F 41.3 °F 42.1 °F 97% 29.75 in 4.0 mi NE 3.5 mph - N/A   Clear
6:53 AM 42.1 °F - 41.0 °F 96% 29.73 in 6.0 mi Calm Calm - N/A   Clear
7:53 AM 42.1 °F 40.2 °F 42.1 °F 100% 29.73 in 3.0 mi East 3.5 mph - N/A   Clear
8:53 AM 48.9 °F - 46.9 °F 93% 29.73 in 5.0 mi Calm Calm - N/A   Clear
9:53 AM 57.9 °F - 54.0 °F 87% 29.74 in 5.0 mi SE 4.6 mph - N/A   Partly Cloudy
10:02 AM 59.0 °F - 54.0 °F 83% 29.75 in 5.0 mi South 5.8 mph - N/A   Haze
10:53 AM 64.0 °F - 55.9 °F 75% 29.71 in 7.0 mi SSW 9.2 mph - N/A   Mostly Cloudy
11:05 AM 64.9 °F - 55.9 °F 73% 29.71 in 8.0 mi SW 10.4 mph - N/A   Scattered Clouds
11:53 AM 69.1 °F - 57.0 °F 65% 29.68 in 10.0 mi SW 8.1 mph - N/A   Partly Cloudy
12:53 PM 72.0 °F - 55.9 °F 57% 29.65 in 10.0 mi South 12.7 mph 23.0 mph N/A   Partly Cloudy
1:53 PM 73.9 °F - 55.9 °F 53% 29.61 in 10.0 mi SSW 12.7 mph 20.7 mph N/A   Partly Cloudy
2:53 PM 75.0 °F - 55.9 °F 51% 29.57 in 10.0 mi South 8.1 mph 19.6 mph N/A   Clear
3:53 PM 77.0 °F - 55.0 °F 47% 29.52 in 10.0 mi SSW 10.4 mph - N/A   Clear
4:53 PM 77.0 °F - 54.0 °F 45% 29.51 in 10.0 mi SSW 10.4 mph 18.4 mph N/A   Clear
5:53 PM 77.0 °F - 53.1 °F 43% 29.50 in 10.0 mi SSW 9.2 mph 18.4 mph N/A   Clear
6:53 PM 75.0 °F - 54.0 °F 48% 29.52 in 10.0 mi South 6.9 mph - N/A   Clear
7:53 PM 71.1 °F - 54.0 °F 55% 29.55 in 10.0 mi South 3.5 mph - N/A   Clear
8:53 PM 60.1 °F - 53.1 °F 78% 29.57 in 10.0 mi Calm Calm - N/A   Clear
9:53 PM 55.9 °F - 53.1 °F 90% 29.59 in 10.0 mi Calm Calm - N/A   Clear
10:53 PM 55.0 °F - 53.1 °F 93% 29.63 in 10.0 mi WSW 3.5 mph - N/A   Scattered Clouds
11:53 PM 60.1 °F - 55.0 °F 83% 29.65 in 10.0 mi SW 5.8 mph - N/A   Overcast